Simultaneous Nadir Overpasses (SNOs) Predictions

Prediction of SNOs between METOP-B and NOAA-19 Satellite Orbit:

Table of predicted SNOs for the next 14.0 days since TLE Epoch: 1/11/2014
Index Date (METOP-B) Time (METOP-B) Lat,Lon (METOP-B) SZA (METOP-B ) Date (NOAA-19) Time (NOAA-19) Lat,Lon (NOAA-19) SZA (NOAA-19 ) Distance(km) Time Diff (sec)
1 01/11/2014 20:23:50 73.65,-131.71 95.41 01/11/2014 20:22:43 73.67,-131.67 95.44 2.71 67
2 01/11/2014 21:14:32 -73.63, 35.59 84.62 01/11/2014 21:13:39 -73.65, 35.65 84.60 2.38 53
3 01/11/2014 22:05:12 73.63,-157.09 95.38 01/11/2014 22:04:46 73.62,-157.06 95.37 1.32 26
4 01/11/2014 22:55:54 -73.61, 10.20 84.65 01/11/2014 22:55:42 -73.59, 10.26 84.66 2.57 12
5 01/11/2014 23:46:34 73.61, 177.52 95.35 01/11/2014 23:46:50 73.61, 177.43 95.36 3.05 16
6 01/12/2014 00:37:16 -73.59, -15.19 84.68 01/12/2014 00:37:46 -73.59, -15.25 84.68 2.12 30
7 01/12/2014 01:27:57 73.53, 152.02 95.27 01/12/2014 01:28:53 73.56, 152.04 95.29 3.13 56
8 01/12/2014 02:18:39 -73.52, -40.69 84.75 01/12/2014 02:19:49 -73.54, -40.65 84.74 2.58 70
9 01/21/2014 23:39:31 73.69, 179.48 93.51 01/21/2014 23:38:17 73.67, 179.53 93.50 3.02 74
10 01/22/2014 00:30:13 -73.67, -13.25 86.52 01/22/2014 00:29:13 -73.68, -13.24 86.50 1.77 60
11 01/22/2014 01:20:53 73.67, 154.09 93.48 01/22/2014 01:20:21 73.67, 154.02 93.48 2.35 32
12 01/22/2014 02:11:35 -73.65, -38.64 86.56 01/22/2014 02:11:16 -73.63, -38.63 86.57 1.51 19
13 01/22/2014 03:02:16 73.60, 128.59 93.40 01/22/2014 03:02:24 73.62, 128.62 93.41 2.24 8
14 01/22/2014 03:52:57 -73.62, -64.03 86.59 01/22/2014 03:53:20 -73.63, -64.14 86.59 3.63 23
15 01/22/2014 04:43:38 73.58, 103.20 93.36 01/22/2014 04:44:27 73.57, 103.23 93.34 1.72 49
16 01/22/2014 05:34:20 -73.55, -89.53 86.67 01/22/2014 05:35:23 -73.58, -89.54 86.66 3.05 63
17 01/22/2014 06:25:13 72.90, 76.36 92.74 01/22/2014 06:26:19 72.97, 79.08 92.68 88.88 66




NCC Satellite Simultaneous Nadir Overpasses (SNOs) Prediction Service
